Station KP59 - Copper Harbor, MI Image indicating link to RSS feed of recent meteorological observations for station KP59


Conditions at KP59 as of
(12:51 pm EDT)
1651 GMT on 06/22/2024:
     

Click on the graph icon in the table below to see a time series plot of the last five days of that observation.

5-day plot - Wind Speed Wind Speed (WSPD): 0.0 kts
5-day plot - Atmospheric Pressure Atmospheric Pressure (PRES):29.93 in
5-day plot - Air Temperature Air Temperature (ATMP): 55.9 °F
5-day plot - Dew Point Dew Point (DEWP): 50.0 °F
5-day plot -  Wind Speed, Wind Gust and Atmospheric Pressure Combined plot of Wind Speed, Gust, and Air Pressure
Previous observations
TIME
(EDT)
5-day plot - Wind Direction
WDIR
 
5-day plot - Wind Speed
WSPD
kts
5-day plot - Wind Gust
GST
kts
5-day plot - Wave Height
WVHT
ft
5-day plot - Dominant Wave Period
DPD
sec
5-day plot - Average Wave Period
APD
sec
5-day plot - Mean Wave Direction
MWD
 
5-day plot - Atmospheric Pressure
PRES
in
5-day plot - Pressure Tendency
PTDY
in
5-day plot - Air Temperature
ATMP
°F
5-day plot - Water Temperature
WTMP
°F
5-day plot - Dew Point
DEWP
°F
5-day plot - Salinity
SAL
psu
5-day plot - Visibility
VIS
nmi
5-day plot - Tide (above MLLW)
TIDE
ft
2024-06-22 11:51 am SW 2.9-----29.95- 57.0- 46.9---
2024-06-22 10:51 am- 2.9-----29.96- 57.0- 45.0---
2024-06-22 09:51 am- 0.0-----29.98- 57.0- 46.0---
2024-06-22 08:51 am- 5.1-----29.98- 57.0- 46.0---
2024-06-22 07:51 am- 0.0-----30.00- 55.0- 46.0---
2024-06-22 06:51 amWSW 5.1-----30.01- 53.1- 48.9---
2024-06-22 05:51 am W 2.9-----30.03- 53.1- 48.9---
2024-06-22 04:51 am- 0.0-----30.03- 55.0- 48.9---
2024-06-22 03:51 am- 0.0-----30.05- 54.0- 48.0---
2024-06-22 02:51 am- 2.9-----30.07- 53.1- 48.0---
2024-06-22 01:51 amWSW 6.0-----30.09- 55.0- 46.9---
2024-06-22 12:51 am- 0.0-----30.11- 55.0- 46.9---
2024-06-21 11:51 pmWSW 2.9-----30.10- 55.0- 45.0---
2024-06-21 10:51 pm- 4.1-----30.10- 57.9- 48.0---
2024-06-21 09:51 pm SW 2.9-----30.10- 60.1- 48.0---
2024-06-21 08:51 pm- 0.0-----30.12- 61.0- 48.0---
2024-06-21 07:51 pm- 2.9-----30.14- 62.1- 46.0---
2024-06-21 06:51 pm-------30.15- 64.0- 45.0---
2024-06-21 05:51 pm- 0.0-----30.16- 61.0- 53.1---
2024-06-21 04:51 pm- 0.0-----30.16- 63.0- 54.0---
2024-06-21 03:51 pm- 2.9-----30.18- 62.1- 53.1---
2024-06-21 02:51 pm- 0.0-----30.20- 60.1- 48.0---
2024-06-21 01:51 pm- 0.0-----30.23- 55.9- 48.0---